Weather reports worldwide

Advertisment
Achnagart, United Kingdom (99191): temperature & dewpoint: 23.04.2017 06:00:00 - 29.04.2017 06:00:00 (BST)Achnagart, United Kingdom (99191): precipitation: 23.04.2017 06:00:00 - 29.04.2017 06:00:00 (BST)
Date & Time tt [°C] td [°C] rr [mm]
29.04.2017 06:00:00 - - 0,0
29.04.2017 05:00:00 7,2 1,5 0,0
29.04.2017 04:00:00 8,3 1,3 0,0
29.04.2017 03:00:00 8,1 1,8 0,0
29.04.2017 02:00:00 7,8 1,8 0,0
29.04.2017 01:00:00 7,5 1,7 0,0
29.04.2017 00:00:00 7,0 2,3 0,0
28.04.2017 23:00:00 6,5 3,5 0,0
28.04.2017 22:00:00 6,5 3,9 0,0
28.04.2017 21:00:00 7,9 3,6 0,2
28.04.2017 20:00:00 9,1 2,4 0,0
28.04.2017 19:00:00 9,4 3,4 0,0
28.04.2017 18:00:00 9,4 3,7 0,0
28.04.2017 17:00:00 10,2 3,5 0,0
28.04.2017 16:00:00 11,0 4,2 0,0
28.04.2017 15:00:00 11,8 4,9 0,0
28.04.2017 14:00:00 10,9 5,6 0,0
28.04.2017 13:00:00 9,9 5,3 0,0
28.04.2017 12:00:00 9,9 6,6 0,0
28.04.2017 11:00:00 9,9 5,4 0,0
28.04.2017 10:00:00 9,0 5,7 0,0
28.04.2017 09:00:00 7,4 6,5 0,2
28.04.2017 08:00:00 6,7 6,4 1,6
28.04.2017 07:00:00 6,6 6,4 1,4
28.04.2017 06:00:00 6,3 6,0 1,2
28.04.2017 05:00:00 6,6 6,2 0,4
28.04.2017 04:00:00 6,6 6,1 0,0
28.04.2017 03:00:00 6,6 5,9 0,0
28.04.2017 02:00:00 6,6 6,0 0,0
28.04.2017 01:00:00 6,8 5,9 0,0
28.04.2017 00:00:00 6,9 5,9 0,0
27.04.2017 23:00:00 7,0 6,0 0,0
27.04.2017 22:00:00 7,4 5,9 0,2
27.04.2017 21:00:00 8,0 5,8 0,0
27.04.2017 20:00:00 8,5 5,8 0,0
27.04.2017 19:00:00 8,9 5,8 0,0
27.04.2017 18:00:00 9,7 6,5 0,0
27.04.2017 17:00:00 9,8 7,0 0,0
27.04.2017 16:00:00 9,3 6,5 0,0
27.04.2017 15:00:00 8,9 7,0 0,0
27.04.2017 14:00:00 9,6 6,7 0,0
27.04.2017 13:00:00 8,9 7,2 0,2
27.04.2017 12:00:00 8,3 7,2 0,2
27.04.2017 11:00:00 7,7 6,6 0,4
27.04.2017 10:00:00 7,5 6,3 0,4
27.04.2017 09:00:00 6,9 5,9 1,0
27.04.2017 08:00:00 6,8 5,5 0,0
27.04.2017 07:00:00 6,5 5,4 0,2
27.04.2017 06:00:00 6,7 4,5 0,0
27.04.2017 05:00:00 6,4 4,3 0,2
27.04.2017 04:00:00 6,9 4,5 0,2
27.04.2017 03:00:00 6,8 4,2 0,0
27.04.2017 02:00:00 7,0 5,0 0,0
27.04.2017 01:00:00 6,4 5,6 0,8
27.04.2017 00:00:00 7,1 6,6 0,4
26.04.2017 23:00:00 6,7 6,3 0,4
26.04.2017 22:00:00 7,1 4,7 0,0
26.04.2017 21:00:00 7,5 3,5 0,0
26.04.2017 20:00:00 8,3 3,6 0,0
26.04.2017 19:00:00 9,3 3,1 0,0
26.04.2017 18:00:00 9,3 2,8 0,0
26.04.2017 17:00:00 9,3 2,7 0,0
26.04.2017 16:00:00 8,9 3,3 0,0
26.04.2017 15:00:00 8,0 3,0 0,0
26.04.2017 14:00:00 8,1 2,8 0,0
26.04.2017 13:00:00 7,2 1,3 0,0
26.04.2017 12:00:00 5,6 1,4 0,0
26.04.2017 11:00:00 4,6 0,6 0,0
26.04.2017 10:00:00 4,3 1,1 0,0
26.04.2017 09:00:00 4,4 1,3 0,0
26.04.2017 08:00:00 3,1 1,8 0,0
26.04.2017 07:00:00 1,8 1,1 0,0
26.04.2017 06:00:00 1,5 0,5 0,0
26.04.2017 05:00:00 1,6 0,4 0,0
26.04.2017 04:00:00 1,9 0,0 0,0
26.04.2017 03:00:00 1,5 -0,6 0,0
26.04.2017 02:00:00 1,0 -0,9 0,0
26.04.2017 01:00:00 3,0 -0,7 0,0
26.04.2017 00:00:00 2,5 0,4 0,0
25.04.2017 23:00:00 3,0 0,1 0,0
25.04.2017 22:00:00 3,1 -0,2 0,0
25.04.2017 21:00:00 3,6 0,1 0,0
25.04.2017 20:00:00 3,6 0,2 0,0
25.04.2017 19:00:00 4,0 -0,4 0,0
25.04.2017 18:00:00 5,2 0,0 0,2
25.04.2017 17:00:00 5,6 -0,5 0,0
25.04.2017 16:00:00 5,3 -0,7 0,2
25.04.2017 15:00:00 5,4 2,5 0,2
25.04.2017 14:00:00 2,4 0,8 0,8
25.04.2017 13:00:00 4,5 0,7 0,0
25.04.2017 12:00:00 5,8 0,8 0,2
25.04.2017 11:00:00 2,4 0,8 1,0
25.04.2017 10:00:00 4,1 1,4 0,6
25.04.2017 09:00:00 3,0 1,2 2,2
25.04.2017 08:00:00 2,4 0,2 0,8
25.04.2017 07:00:00 1,7 0,8 0,0
25.04.2017 06:00:00 1,1 0,8 0,0
25.04.2017 05:00:00 0,5 0,3 0,0
25.04.2017 04:00:00 0,7 0,5 0,0
25.04.2017 03:00:00 0,3 -0,1 0,0
25.04.2017 02:00:00 0,5 -0,1 0,2
25.04.2017 01:00:00 2,8 -2,5 0,0
25.04.2017 00:00:00 2,9 -3,2 0,0
24.04.2017 23:00:00 2,8 -3,4 0,0
24.04.2017 22:00:00 3,7 -2,1 0,0
24.04.2017 21:00:00 2,3 0,9 0,6
24.04.2017 20:00:00 3,1 1,8 0,4
24.04.2017 19:00:00 1,3 0,6 1,0
24.04.2017 18:00:00 1,0 -0,4 0,4
24.04.2017 17:00:00 2,9 -2,3 0,0
24.04.2017 16:00:00 4,3 -3,1 0,0
24.04.2017 15:00:00 4,2 -3,1 0,2
24.04.2017 14:00:00 3,2 1,8 0,0
24.04.2017 13:00:00 2,6 0,9 0,4
24.04.2017 12:00:00 1,7 1,1 1,0
24.04.2017 11:00:00 2,3 1,7 2,6
24.04.2017 10:00:00 3,0 1,0 0,6
24.04.2017 09:00:00 3,7 0,8 0,4
24.04.2017 08:00:00 3,7 -0,3 0,0
24.04.2017 07:00:00 4,4 -0,7 0,0
24.04.2017 06:00:00 4,0 0,2 0,2
24.04.2017 05:00:00 4,8 0,8 0,0
24.04.2017 04:00:00 4,9 1,7 0,0
24.04.2017 03:00:00 4,7 3,0 0,0
24.04.2017 02:00:00 5,0 2,7 0,2
24.04.2017 01:00:00 5,3 4,2 0,4
24.04.2017 00:00:00 6,4 4,5 1,4
23.04.2017 23:00:00 7,1 5,3 3,0
23.04.2017 22:00:00 8,9 6,5 0,4
23.04.2017 21:00:00 9,2 6,4 2,0
23.04.2017 20:00:00 8,6 6,4 0,4
23.04.2017 19:00:00 8,3 5,3 0,0
23.04.2017 18:00:00 8,9 4,1 0,2
23.04.2017 17:00:00 8,9 3,2 0,0
23.04.2017 16:00:00 9,4 3,1 0,0
23.04.2017 15:00:00 9,5 3,1 0,0
23.04.2017 14:00:00 9,3 2,7 0,0
23.04.2017 13:00:00 9,3 2,4 0,0
23.04.2017 12:00:00 8,5 2,6 0,0
23.04.2017 11:00:00 8,7 3,3 0,0
23.04.2017 10:00:00 8,0 2,8 0,0
23.04.2017 09:00:00 7,8 3,7 0,0
23.04.2017 08:00:00 6,4 3,7 0,0
23.04.2017 07:00:00 5,0 1,8 0,0
23.04.2017 06:00:00 6,0 1,8 0,0

tt = temperature
td = dewpoint
rr = precipitation

Next stations